Location: Litvinovka
(48.6667°N, 34.3500°E)
Time: 18:31:05
(UTC+00:00)

Cosmos 2034 Rocket - Pass Details

Date: 18 September 2020
Orbit: 957 x 1002 km, 82.9° (Epoch: 21 October)

Event Time Altitude Azimuth Distance (km) Brightness Sun altitude
Rises 17:09:25 0° 172° (S) 3,712 6.8 -13.9°
Reaches altitude 10° 17:11:58 10° 168° (SSE) 2,766 6.1 -14.3°
Maximum altitude 17:18:10 56° 92° (E) 1,174 4.1 -15.3°
Drops below altitude 10° 17:24:21 10° 16° (NNE) 2,770 6.4 -16.3°
Sets 17:26:55 0° 13° (NNE) 3,718 7.2 -16.6°
